| time (UTC) | temp F | wind direction | speed MPH | gust MPH | rain 1hr in | rain 24hr in | rain mn in | humidity % | barometer mb |
| 20260902134956 | 83 | 169 | 8.0 | 18.0 | 0.00 | 0.00 | 0.00 | 73 | 1000.1 |
| 20260902134938 | 83 | 180 | 8.0 | 18.0 | 0.00 | 0.00 | 0.00 | 73 | 1000.0 |
| 20260902134457 | 83 | 24 | 7.0 | 16.0 | 0.00 | 0.00 | 0.00 | 72 | 1000.1 |
| 20260902134428 | 83 | 348 | 6.0 | 16.0 | 0.00 | 0.00 | 0.00 | 73 | 1000.1 |
| 20260902133956 | 83 | 160 | 8.0 | 27.0 | 0.00 | 0.00 | 0.00 | 72 | 1000.2 |
| 20260902133917 | 83 | 174 | 10.0 | 27.0 | 0.00 | 0.00 | 0.00 | 72 | 1000.1 |
| 20260902133456 | 83 | 228 | 11.0 | 24.0 | 0.00 | 0.00 | 0.00 | 72 | 1000.0 |
| 20260902133408 | 83 | 138 | 10.0 | 24.0 | 0.00 | 0.00 | 0.00 | 72 | 1000.0 |
| 20260902132957 | 83 | 135 | 4.0 | 15.0 | 0.00 | 0.00 | 0.00 | 72 | 1000.0 |
| 20260902132858 | 83 | 92 | 7.0 | 15.0 | 0.00 | 0.00 | 0.00 | 72 | 1000.1 |
| 20260902132456 | 83 | 50 | 3.0 | 25.0 | 0.00 | 0.00 | 0.00 | 72 | 1000.1 |
| 20260902132347 | 83 | 208 | 4.0 | 25.0 | 0.00 | 0.00 | 0.00 | 72 | 1000.0 |
| 20260902131956 | 83 | 129 | 6.0 | 19.0 | 0.00 | 0.00 | 0.00 | 72 | 1000.1 |
| 20260902131838 | 83 | 188 | 5.0 | 19.0 | 0.00 | 0.00 | 0.00 | 72 | 1000.0 |
| 20260902131456 | 83 | 308 | 9.0 | 15.0 | 0.00 | 0.00 | 0.00 | 72 | 1000.0 |
| 20260902131327 | 83 | 71 | 7.0 | 21.0 | 0.00 | 0.00 | 0.00 | 72 | 999.9 |
| 20260902130956 | 83 | 41 | 10.0 | 21.0 | 0.00 | 0.00 | 0.00 | 72 | 999.9 |
| 20260902130817 | 83 | 222 | 9.0 | 17.0 | 0.00 | 0.00 | 0.00 | 72 | 999.8 |
| 20260902130456 | 83 | 49 | 1.0 | 10.0 | 0.00 | 0.00 | 0.00 | 72 | 999.8 |
| 20260902130308 | 83 | 53 | 6.0 | 14.0 | 0.00 | 0.00 | 0.00 | 72 | 999.8 |
| 20260902125956 | 83 | 133 | 5.0 | 14.0 | 0.00 | 0.00 | 0.00 | 72 | 999.7 |
| 20260902125757 | 83 | 62 | 5.0 | 12.0 | 0.00 | 0.00 | 0.00 | 72 | 999.7 |
| 20260902125456 | 84 | 56 | 7.0 | 11.0 | 0.00 | 0.00 | 0.00 | 72 | 999.7 |
| 20260902125247 | 84 | 88 | 3.0 | 11.0 | 0.00 | 0.00 | 0.00 | 72 | 999.7 |
| 20260902124956 | 84 | 113 | 2.0 | 11.0 | 0.00 | 0.00 | 0.00 | 72 | 999.7 |
| 20260902124738 | 84 | 113 | 2.0 | 8.0 | 0.00 | 0.00 | 0.00 | 72 | 999.6 |
| 20260902124455 | 84 | 4 | 1.0 | 13.0 | 0.00 | 0.00 | 0.00 | 72 | 999.6 |
| 20260902124227 | 84 | 98 | 7.0 | 13.0 | 0.00 | 0.00 | 0.00 | 72 | 999.5 |
| 20260902123956 | 84 | 117 | 2.0 | 10.0 | 0.00 | 0.00 | 0.00 | 72 | 999.6 |
| 20260902123717 | 84 | 134 | 2.0 | 12.0 | 0.00 | 0.00 | 0.00 | 72 | 999.5 |
| 20260902123456 | 84 | 169 | 8.0 | 12.0 | 0.00 | 0.00 | 0.00 | 72 | 999.5 |
| 20260902123207 | 84 | 15 | 5.0 | 11.0 | 0.00 | 0.00 | 0.00 | 72 | 999.6 |
| 20260902122956 | 84 | 41 | 4.0 | 17.0 | 0.00 | 0.00 | 0.00 | 72 | 999.5 |
| 20260902122657 | 84 | 77 | 7.0 | 24.0 | 0.00 | 0.00 | 0.00 | 72 | 999.5 |
| 20260902122456 | 84 | 130 | 8.0 | 24.0 | 0.00 | 0.00 | 0.00 | 72 | 999.5 |
| 20260902122148 | 84 | 40 | 8.0 | 13.0 | 0.00 | 0.00 | 0.00 | 72 | 999.6 |
| 20260902121955 | 84 | 205 | 6.0 | 13.0 | 0.00 | 0.00 | 0.00 | 72 | 999.5 |
| 20260902121456 | 84 | 59 | 4.0 | 14.0 | 0.00 | 0.00 | 0.00 | 72 | 999.5 |
| 20260902121127 | 84 | 75 | 2.0 | 15.0 | 0.00 | 0.00 | 0.00 | 72 | 999.4 |
| 20260902120956 | 84 | 106 | 7.0 | 23.0 | 0.00 | 0.00 | 0.00 | 72 | 999.4 |
| 20260902120616 | 84 | 45 | 11.0 | 28.0 | 0.00 | 0.00 | 0.00 | 72 | 999.4 |
| 20260902120455 | 84 | 197 | 13.0 | 28.0 | 0.00 | 0.00 | 0.00 | 72 | 999.2 |
| 20260902120107 | 84 | 135 | 5.0 | 10.0 | 0.00 | 0.00 | 0.00 | 72 | 999.3 |
| 20260902115955 | 84 | 141 | 5.0 | 17.0 | 0.00 | 0.00 | 0.00 | 72 | 999.4 |
| 20260902115557 | 84 | 169 | 7.0 | 21.0 | 0.00 | 0.00 | 0.00 | 72 | 999.2 |
| 20260902115456 | 84 | 101 | 9.0 | 21.0 | 0.00 | 0.00 | 0.00 | 72 | 999.3 |
| 20260902115047 | 84 | 71 | 3.0 | 17.0 | 0.00 | 0.00 | 0.00 | 72 | 999.2 |
| 20260902114955 | 84 | 22 | 4.0 | 17.0 | 0.00 | 0.00 | 0.00 | 72 | 999.2 |
| 20260902114537 | 84 | 64 | 6.0 | 26.0 | 0.00 | 0.00 | 0.00 | 72 | 999.0 |
| 20260902114455 | 84 | 10 | 3.0 | 26.0 | 0.00 | 0.00 | 0.00 | 72 | 999.1 |
| 20260902114027 | 84 | 193 | 6.0 | 16.0 | 0.00 | 0.00 | 0.00 | 72 | 999.0 |
| 20260902113956 | 84 | 108 | 4.0 | 16.0 | 0.00 | 0.00 | 0.00 | 72 | 999.0 |
| 20260902113517 | 84 | 23 | 6.0 | 18.0 | 0.00 | 0.00 | 0.00 | 72 | 998.9 |
| 20260902113455 | 84 | 204 | 4.0 | 18.0 | 0.00 | 0.00 | 0.00 | 72 | 998.9 |
| 20260902113007 | 85 | 80 | 2.0 | 10.0 | 0.00 | 0.00 | 0.00 | 72 | 998.9 |
| 20260902112956 | 85 | 29 | 2.0 | 11.0 | 0.00 | 0.00 | 0.00 | 72 | 998.9 |
| 20260902112457 | 85 | 54 | 6.0 | 11.0 | 0.00 | 0.00 | 0.00 | 72 | 998.8 |
| 20260902112455 | 85 | 28 | 6.0 | 11.0 | 0.00 | 0.00 | 0.00 | 72 | 998.8 |
| 20260902111955 | 85 | 343 | 1.0 | 16.0 | 0.00 | 0.00 | 0.00 | 72 | 998.9 |
| 20260902111947 | 85 | 30 | 1.0 | 16.0 | 0.00 | 0.00 | 0.00 | 72 | 998.8 |
| 20260902111455 | 85 | 14 | 8.0 | 25.0 | 0.00 | 0.00 | 0.00 | 72 | 998.8 |
| 20260902111437 | 85 | 322 | 9.0 | 25.0 | 0.00 | 0.00 | 0.00 | 72 | 998.7 |
| 20260902110955 | 85 | 180 | 4.0 | 8.0 | 0.00 | 0.00 | 0.00 | 72 | 998.7 |
| 20260902110926 | 85 | 50 | 5.0 | 8.0 | 0.00 | 0.00 | 0.00 | 72 | 998.8 |
| 20260902110455 | 85 | 50 | 3.0 | 9.0 | 0.00 | 0.00 | 0.00 | 72 | 998.6 |
| 20260902110417 | 85 | 145 | 4.0 | 9.0 | 0.00 | 0.00 | 0.00 | 72 | 998.6 |
| 20260902105955 | 85 | 109 | 4.0 | 12.0 | 0.00 | 0.00 | 0.00 | 72 | 998.6 |
| 20260902105906 | 85 | 123 | 6.0 | 17.0 | 0.00 | 0.00 | 0.00 | 72 | 998.5 |
| 20260902105455 | 85 | 73 | 9.0 | 17.0 | 0.00 | 0.00 | 0.00 | 72 | 998.5 |
| 20260902105357 | 85 | 130 | 4.0 | 9.0 | 0.00 | 0.00 | 0.00 | 72 | 998.5 |
| 20260902104956 | 85 | 129 | 4.0 | 20.0 | 0.00 | 0.00 | 0.00 | 72 | 998.5 |
| 20260902104846 | 85 | 45 | 7.0 | 20.0 | 0.00 | 0.00 | 0.00 | 72 | 998.5 |
| 20260902104455 | 85 | 45 | 8.0 | 33.0 | 0.00 | 0.00 | 0.00 | 72 | 998.6 |
| 20260902104337 | 85 | 45 | 8.0 | 33.0 | 0.00 | 0.00 | 0.00 | 72 | 998.5 |
| 20260902103956 | 85 | 38 | 5.0 | 12.0 | 0.00 | 0.00 | 0.00 | 72 | 998.5 |
| 20260902103826 | 85 | 69 | 6.0 | 12.0 | 0.00 | 0.00 | 0.00 | 72 | 998.5 |
| 20260902103455 | 85 | 129 | 6.0 | 11.0 | 0.00 | 0.00 | 0.00 | 72 | 998.4 |
| 20260902103316 | 86 | 357 | 5.0 | 11.0 | 0.00 | 0.00 | 0.00 | 72 | 998.4 |
| 20260902102955 | 86 | 47 | 3.0 | 14.0 | 0.00 | 0.00 | 0.00 | 72 | 998.3 |
| 20260902102807 | 86 | 119 | 5.0 | 18.0 | 0.00 | 0.00 | 0.00 | 72 | 998.2 |
| 20260902102455 | 86 | 284 | 7.0 | 18.0 | 0.00 | 0.00 | 0.00 | 71 | 998.3 |
| 20260902101956 | 86 | 23 | 4.0 | 11.0 | 0.00 | 0.00 | 0.00 | 71 | 998.2 |
| 20260902101747 | 86 | 52 | 6.0 | 9.0 | 0.00 | 0.00 | 0.00 | 71 | 998.3 |
| 20260902101454 | 86 | 168 | 5.0 | 14.0 | 0.00 | 0.00 | 0.00 | 72 | 998.3 |
| 20260902101236 | 86 | 69 | 7.0 | 14.0 | 0.00 | 0.00 | 0.00 | 72 | 998.2 |
| 20260902100955 | 86 | 70 | 4.0 | 14.0 | 0.00 | 0.00 | 0.00 | 72 | 998.1 |
| 20260902100727 | 86 | 40 | 9.0 | 14.0 | 0.00 | 0.00 | 0.00 | 72 | 998.2 |
| 20260902100454 | 86 | 47 | 3.0 | 7.0 | 0.00 | 0.00 | 0.00 | 72 | 998.2 |
| 20260902100216 | 86 | 1 | 1.0 | 7.0 | 0.00 | 0.00 | 0.00 | 71 | 998.2 |
| 20260902095955 | 86 | 358 | 5.0 | 11.0 | 0.00 | 0.00 | 0.00 | 71 | 998.1 |
| 20260902095706 | 86 | 85 | 6.0 | 11.0 | 0.00 | 0.00 | 0.00 | 71 | 998.2 |
| 20260902095455 | 86 | 130 | 3.0 | 7.0 | 0.00 | 0.00 | 0.00 | 71 | 998.1 |
| 20260902095156 | 86 | 109 | 2.0 | 7.0 | 0.00 | 0.00 | 0.00 | 71 | 998.1 |
| 20260902094955 | 86 | 47 | 2.0 | 8.0 | 0.00 | 0.00 | 0.00 | 71 | 998.1 |
| 20260902094646 | 87 | 19 | 3.0 | 8.0 | 0.00 | 0.00 | 0.00 | 71 | 998.1 |
| 20260902094455 | 87 | 82 | 2.0 | 8.0 | 0.00 | 0.00 | 0.00 | 71 | 998.0 |
| 20260902094136 | 87 | 44 | 4.0 | 14.0 | 0.00 | 0.00 | 0.00 | 71 | 998.0 |
| 20260902093954 | 87 | 64 | 3.0 | 14.0 | 0.00 | 0.00 | 0.00 | 71 | 997.9 |
| 20260902093626 | 87 | 89 | 2.0 | 10.0 | 0.00 | 0.00 | 0.00 | 71 | 998.0 |
| 20260902093455 | 87 | 44 | 4.0 | 10.0 | 0.00 | 0.00 | 0.00 | 71 | 998.0 |
| 20260902093116 | 87 | 95 | 5.0 | 8.0 | 0.00 | 0.00 | 0.00 | 71 | 997.9 |
| 20260902092954 | 87 | 21 | 3.0 | 8.0 | 0.00 | 0.00 | 0.00 | 71 | 997.9 |
| 20260902092606 | 87 | 129 | 3.0 | 16.0 | 0.00 | 0.00 | 0.00 | 71 | 997.8 |
| 20260902092455 | 87 | 55 | 6.0 | 16.0 | 0.00 | 0.00 | 0.00 | 71 | 997.9 |
| 20260902092056 | 87 | 170 | 8.0 | 19.0 | 0.00 | 0.00 | 0.00 | 71 | 997.8 |
| 20260902091955 | 87 | 177 | 8.0 | 30.0 | 0.00 | 0.00 | 0.00 | 71 | 997.7 |
| 20260902091546 | 87 | 167 | 20.0 | 30.0 | 0.00 | 0.00 | 0.00 | 71 | 997.8 |
| 20260902091454 | 87 | 160 | 12.0 | 22.0 | 0.00 | 0.00 | 0.00 | 71 | 997.7 |
| 20260902090954 | 87 | 180 | 9.0 | 23.0 | 0.00 | 0.00 | 0.00 | 71 | 997.7 |
| 20260902090525 | 87 | 188 | 12.0 | 20.0 | 0.00 | 0.00 | 0.00 | 71 | 997.7 |
| 20260902090454 | 87 | 191 | 12.0 | 20.0 | 0.00 | 0.00 | 0.00 | 71 | 997.7 |
| 20260902090016 | 87 | 114 | 8.0 | 22.0 | 0.00 | 0.00 | 0.00 | 71 | 997.7 |
| 20260902085954 | 87 | 147 | 11.0 | 22.0 | 0.00 | 0.00 | 0.00 | 71 | 997.8 |
| 20260902085505 | 88 | 160 | 4.0 | 18.0 | 0.00 | 0.00 | 0.00 | 70 | 997.7 |
| 20260902085454 | 88 | 161 | 4.0 | 18.0 | 0.00 | 0.00 | 0.00 | 70 | 997.7 |
| 20260902084957 | 87 | 202 | 4.0 | 16.0 | 0.00 | 0.00 | 0.00 | 71 | 997.7 |
| 20260902084954 | 87 | 129 | 4.0 | 16.0 | 0.00 | 0.00 | 0.00 | 71 | 997.7 |
| 20260902084454 | 87 | 94 | 7.0 | 19.0 | 0.00 | 0.00 | 0.00 | 71 | 997.7 |
| 20260902084445 | 87 | 142 | 6.0 | 19.0 | 0.00 | 0.00 | 0.00 | 71 | 997.6 |
| 20260902083954 | 88 | 169 | 9.0 | 20.0 | 0.00 | 0.00 | 0.00 | 71 | 997.7 |
| 20260902083935 | 88 | 158 | 5.0 | 20.0 | 0.00 | 0.00 | 0.00 | 71 | 997.7 |
| 20260902083454 | 87 | 165 | 6.0 | 19.0 | 0.00 | 0.00 | 0.00 | 71 | 997.7 |
| 20260902083426 | 87 | 32 | 6.0 | 19.0 | 0.00 | 0.00 | 0.00 | 72 | 997.6 |
| 20260902082954 | 87 | 84 | 7.0 | 16.0 | 0.00 | 0.00 | 0.00 | 72 | 997.6 |
| 20260902082915 | 87 | 170 | 8.0 | 17.0 | 0.00 | 0.00 | 0.00 | 72 | 997.6 |
| 20260902082454 | 87 | 157 | 10.0 | 17.0 | 0.00 | 0.00 | 0.00 | 72 | 997.6 |
| 20260902082406 | 87 | 165 | 11.0 | 16.0 | 0.00 | 0.00 | 0.00 | 72 | 997.6 |
| 20260902081953 | 87 | 47 | 3.0 | 8.0 | 0.00 | 0.00 | 0.00 | 72 | 997.6 |
| 20260902081855 | 87 | 80 | 2.0 | 9.0 | 0.00 | 0.00 | 0.00 | 72 | 997.6 |
| 20260902081454 | 87 | 89 | 6.0 | 21.0 | 0.00 | 0.00 | 0.00 | 72 | 997.5 |
| 20260902081345 | 87 | 174 | 9.0 | 21.0 | 0.00 | 0.00 | 0.00 | 72 | 997.6 |
| 20260902080954 | 88 | 219 | 12.0 | 21.0 | 0.00 | 0.00 | 0.00 | 71 | 997.4 |
| 20260902080835 | 88 | 238 | 14.0 | 24.0 | 0.00 | 0.00 | 0.00 | 71 | 997.5 |
| 20260902080454 | 88 | 159 | 10.0 | 24.0 | 0.00 | 0.00 | 0.00 | 70 | 997.5 |
| 20260902080325 | 88 | 176 | 11.0 | 23.0 | 0.00 | 0.00 | 0.00 | 70 | 997.4 |
| 20260902075954 | 89 | 162 | 12.0 | 23.0 | 0.00 | 0.00 | 0.00 | 70 | 997.4 |
| 20260902075815 | 89 | 169 | 7.0 | 22.0 | 0.00 | 0.00 | 0.00 | 70 | 997.4 |
| 20260902075453 | 89 | 192 | 12.0 | 21.0 | 0.00 | 0.00 | 0.00 | 69 | 997.4 |
| 20260902075306 | 89 | 360 | 9.0 | 21.0 | 0.00 | 0.00 | 0.00 | 69 | 997.4 |
| 20260902074954 | 89 | 161 | 9.0 | 23.0 | 0.00 | 0.00 | 0.00 | 70 | 997.4 |
| 20260902074755 | 89 | 221 | 10.0 | 23.0 | 0.00 | 0.00 | 0.00 | 69 | 997.3 |
| 20260902074453 | 89 | 221 | 12.0 | 26.0 | 0.00 | 0.00 | 0.00 | 69 | 997.4 |
| 20260902074245 | 90 | 237 | 17.0 | 26.0 | 0.00 | 0.00 | 0.00 | 69 | 997.4 |
| 20260902073953 | 90 | 210 | 2.0 | 15.0 | 0.00 | 0.00 | 0.00 | 69 | 997.4 |
| 20260902073735 | 90 | 103 | 8.0 | 25.0 | 0.00 | 0.00 | 0.00 | 69 | 997.5 |
| 20260902073454 | 90 | 133 | 10.0 | 25.0 | 0.00 | 0.00 | 0.00 | 68 | 997.4 |
| 20260902073225 | 90 | 178 | 6.0 | 15.0 | 0.00 | 0.00 | 0.00 | 68 | 997.4 |
| 20260902072953 | 90 | 44 | 6.0 | 15.0 | 0.00 | 0.00 | 0.00 | 68 | 997.6 |
| 20260902072715 | 90 | 265 | 1.0 | 12.0 | 0.00 | 0.00 | 0.00 | 69 | 997.4 |
| 20260902072454 | 90 | 148 | 5.0 | 21.0 | 0.00 | 0.00 | 0.00 | 69 | 997.4 |
| 20260902072205 | 90 | 126 | 10.0 | 21.0 | 0.00 | 0.00 | 0.00 | 68 | 997.3 |
| 20260902071953 | 90 | 147 | 10.0 | 17.0 | 0.00 | 0.00 | 0.00 | 68 | 997.4 |
| 20260902071655 | 90 | 219 | 3.0 | 10.0 | 0.00 | 0.00 | 0.00 | 69 | 997.4 |
| 20260902071453 | 90 | 104 | 4.0 | 14.0 | 0.00 | 0.00 | 0.00 | 68 | 997.4 |
| 20260902071145 | 90 | 54 | 5.0 | 15.0 | 0.00 | 0.00 | 0.00 | 69 | 997.4 |
| 20260902070953 | 90 | 1 | 3.0 | 15.0 | 0.00 | 0.00 | 0.00 | 69 | 997.5 |
| 20260902070634 | 90 | 209 | 9.0 | 24.0 | 0.00 | 0.00 | 0.00 | 68 | 997.5 |
| 20260902070453 | 90 | 152 | 4.0 | 24.0 | 0.00 | 0.00 | 0.00 | 69 | 997.5 |
| 20260902070125 | 90 | 216 | 14.0 | 24.0 | 0.00 | 0.00 | 0.00 | 68 | 997.4 |
| 20260902065954 | 90 | 221 | 2.0 | 11.0 | 0.00 | 0.00 | 0.00 | 69 | 997.5 |
| 20260902065615 | 90 | 25 | 5.0 | 9.0 | 0.00 | 0.00 | 0.00 | 69 | 997.6 |
| 20260902065453 | 89 | 224 | 3.0 | 7.0 | 0.00 | 0.00 | 0.00 | 69 | 997.6 |
| 20260902065105 | 89 | 162 | 1.0 | 14.0 | 0.00 | 0.00 | 0.00 | 70 | 997.7 |
| 20260902064953 | 89 | 51 | 5.0 | 14.0 | 0.00 | 0.00 | 0.00 | 69 | 997.7 |
| 20260902064554 | 89 | 60 | 5.0 | 14.0 | 0.00 | 0.00 | 0.00 | 70 | 997.7 |
| 20260902064453 | 89 | 40 | 5.0 | 14.0 | 0.00 | 0.00 | 0.00 | 69 | 997.7 |
| 20260902064045 | 89 | 220 | 7.0 | 17.0 | 0.00 | 0.00 | 0.00 | 69 | 997.8 |
| 20260902063953 | 89 | 193 | 7.0 | 17.0 | 0.00 | 0.00 | 0.00 | 69 | 997.7 |
| 20260902063534 | 90 | 44 | 4.0 | 19.0 | 0.00 | 0.00 | 0.00 | 69 | 997.8 |
| 20260902063453 | 90 | 50 | 6.0 | 19.0 | 0.00 | 0.00 | 0.00 | 68 | 997.8 |
| 20260902063025 | 89 | 244 | 4.0 | 12.0 | 0.00 | 0.00 | 0.00 | 69 | 997.8 |
| 20260902062953 | 89 | 351 | 4.0 | 12.0 | 0.00 | 0.00 | 0.00 | 69 | 997.8 |
| 20260902062514 | 89 | 57 | 2.0 | 20.0 | 0.00 | 0.00 | 0.00 | 70 | 997.8 |
| 20260902062453 | 89 | 318 | 2.0 | 20.0 | 0.00 | 0.00 | 0.00 | 70 | 997.8 |
| 20260902062005 | 88 | 125 | 9.0 | 18.0 | 0.00 | 0.00 | 0.00 | 70 | 997.8 |
| 20260902061953 | 88 | 99 | 9.0 | 18.0 | 0.00 | 0.00 | 0.00 | 70 | 997.8 |
| 20260902061455 | 88 | 250 | 10.0 | 19.0 | 0.00 | 0.00 | 0.00 | 70 | 997.8 |
| 20260902061453 | 88 | 225 | 10.0 | 19.0 | 0.00 | 0.00 | 0.00 | 70 | 997.8 |
| 20260902060953 | 87 | 6 | 7.0 | 32.0 | 0.00 | 0.00 | 0.00 | 72 | 997.8 |
| 20260902060945 | 87 | 72 | 8.0 | 32.0 | 0.00 | 0.00 | 0.00 | 72 | 997.8 |
| 20260902060453 | 87 | 140 | 14.0 | 27.0 | 0.00 | 0.00 | 0.00 | 72 | 997.9 |
| 20260902055953 | 88 | 246 | 15.0 | 23.0 | 0.00 | 0.00 | 0.00 | 72 | 998.0 |
| 20260902055925 | 88 | 247 | 17.0 | 23.0 | 0.00 | 0.00 | 0.00 | 71 | 997.9 |
| 20260902055453 | 87 | 224 | 12.0 | 24.0 | 0.00 | 0.00 | 0.00 | 72 | 997.9 |
| 20260902055414 | 87 | 227 | 11.0 | 24.0 | 0.00 | 0.00 | 0.00 | 72 | 998.0 |
| 20260902054953 | 87 | 223 | 15.0 | 21.0 | 0.00 | 0.00 | 0.00 | 71 | 997.9 |
| 20260902054904 | 88 | 161 | 15.0 | 21.0 | 0.00 | 0.00 | 0.00 | 71 | 998.0 |
| 20260902054452 | 88 | 196 | 11.0 | 21.0 | 0.00 | 0.00 | 0.00 | 71 | 998.0 |
| 20260902053953 | 88 | 245 | 10.0 | 24.0 | 0.00 | 0.00 | 0.00 | 71 | 998.1 |
| 20260902053844 | 87 | 9 | 9.0 | 24.0 | 0.00 | 0.00 | 0.00 | 72 | 998.1 |
| 20260902053452 | 88 | 164 | 14.0 | 22.0 | 0.00 | 0.00 | 0.00 | 70 | 998.1 |
| 20260902053334 | 88 | 166 | 11.0 | 21.0 | 0.00 | 0.00 | 0.00 | 70 | 998.1 |
| 20260902052952 | 88 | 201 | 14.0 | 22.0 | 0.00 | 0.00 | 0.00 | 70 | 998.1 |
| 20260902052824 | 88 | 213 | 11.0 | 24.0 | 0.00 | 0.00 | 0.00 | 70 | 998.1 |
| 20260902052452 | 88 | 199 | 11.0 | 23.0 | 0.00 | 0.00 | 0.00 | 70 | 998.0 |
| 20260902052314 | 88 | 174 | 12.0 | 17.0 | 0.00 | 0.00 | 0.00 | 70 | 998.1 |
| 20260902051953 | 88 | 226 | 10.0 | 29.0 | 0.00 | 0.00 | 0.00 | 70 | 998.2 |
| 20260902051804 | 88 | 222 | 12.0 | 29.0 | 0.00 | 0.00 | 0.00 | 70 | 998.2 |
| 20260902051452 | 88 | 229 | 15.0 | 30.0 | 0.00 | 0.00 | 0.00 | 70 | 998.2 |
| 20260902051254 | 88 | 221 | 13.0 | 30.0 | 0.00 | 0.00 | 0.00 | 70 | 998.3 |
| 20260902050952 | 87 | 227 | 1.0 | 33.0 | 0.00 | 0.00 | 0.00 | 72 | 998.3 |
| 20260902050452 | 87 | 166 | 9.0 | 20.0 | 0.00 | 0.00 | 0.00 | 72 | 998.4 |
| 20260902050232 | 86 | 286 | 9.0 | 33.0 | 0.00 | 0.00 | 0.00 | 73 | 998.5 |
| 20260902045952 | 86 | 175 | 15.0 | 33.0 | 0.00 | 0.00 | 0.00 | 72 | 998.5 |
| 20260902045724 | 86 | 228 | 12.0 | 22.0 | 0.00 | 0.00 | 0.00 | 72 | 998.5 |
| 20260902045453 | 86 | 231 | 8.0 | 29.0 | 0.00 | 0.00 | 0.00 | 72 | 998.6 |
| 20260902045213 | 86 | 201 | 14.0 | 29.0 | 0.00 | 0.00 | 0.00 | 72 | 998.6 |
| 20260902044952 | 86 | 141 | 16.0 | 25.0 | 0.00 | 0.00 | 0.00 | 72 | 998.6 |
| 20260902044704 | 86 | 151 | 10.0 | 21.0 | 0.00 | 0.00 | 0.00 | 73 | 998.8 |
| 20260902044453 | 86 | 212 | 10.0 | 23.0 | 0.00 | 0.00 | 0.00 | 72 | 998.7 |
| 20260902044153 | 87 | 199 | 17.0 | 23.0 | 0.00 | 0.00 | 0.00 | 72 | 998.6 |
| 20260902043952 | 87 | 173 | 9.0 | 14.0 | 0.00 | 0.00 | 0.00 | 72 | 998.7 |
| 20260902043644 | 87 | 228 | 6.0 | 17.0 | 0.00 | 0.00 | 0.00 | 73 | 998.8 |
| 20260902043452 | 86 | 140 | 8.0 | 17.0 | 0.00 | 0.00 | 0.00 | 73 | 998.8 |
| 20260902043133 | 86 | 208 | 9.0 | 22.0 | 0.00 | 0.00 | 0.00 | 72 | 998.8 |
| 20260902042952 | 87 | 184 | 12.0 | 22.0 | 0.00 | 0.00 | 0.00 | 72 | 998.8 |
| 20260902042624 | 87 | 204 | 9.0 | 20.0 | 0.00 | 0.00 | 0.00 | 71 | 998.8 |
| 20260902042452 | 88 | 199 | 11.0 | 18.0 | 0.00 | 0.00 | 0.00 | 71 | 998.8 |
| 20260902042113 | 88 | 167 | 5.0 | 10.0 | 0.00 | 0.00 | 0.00 | 70 | 999.1 |
| 20260902041952 | 88 | 206 | 4.0 | 10.0 | 0.00 | 0.00 | 0.00 | 71 | 999.1 |
| 20260902041603 | 87 | 117 | 2.0 | 19.0 | 0.00 | 0.00 | 0.00 | 71 | 999.1 |
| 20260902041452 | 87 | 76 | 7.0 | 19.0 | 0.00 | 0.00 | 0.00 | 71 | 999.1 |
| 20260902041054 | 87 | 51 | 8.0 | 26.0 | 0.00 | 0.00 | 0.00 | 72 | 999.1 |
| 20260902040951 | 87 | 130 | 11.0 | 26.0 | 0.00 | 0.00 | 0.00 | 71 | 999.1 |
| 20260902040543 | 87 | 349 | 7.0 | 13.0 | 0.00 | 0.00 | 0.00 | 71 | 999.3 |
| 20260902040452 | 87 | 67 | 6.0 | 13.0 | 0.00 | 0.00 | 0.00 | 72 | 999.2 |
| 20260902040034 | 87 | 36 | 7.0 | 18.0 | 0.00 | 0.00 | 0.00 | 72 | 999.3 |
| 20260902035951 | 86 | 324 | 6.0 | 18.0 | 0.00 | 0.00 | 0.00 | 72 | 999.3 |
| 20260902035523 | 86 | 352 | 8.0 | 16.0 | 0.00 | 0.00 | 0.00 | 72 | 999.4 |
| 20260902035452 | 86 | 17 | 7.0 | 21.0 | 0.00 | 0.00 | 0.00 | 72 | 999.5 |
| 20260902035014 | 87 | 357 | 8.0 | 19.0 | 0.00 | 0.00 | 0.00 | 71 | 999.3 |
| 20260902034952 | 87 | 30 | 8.0 | 19.0 | 0.00 | 0.00 | 0.00 | 72 | 999.4 |
| 20260902034503 | 87 | 360 | 9.0 | 17.0 | 0.00 | 0.00 | 0.00 | 72 | 999.4 |
| 20260902034452 | 87 | 230 | 7.0 | 17.0 | 0.00 | 0.00 | 0.00 | 72 | 999.5 |
| 20260902033954 | 85 | 89 | 8.0 | 14.0 | 0.00 | 0.00 | 0.00 | 74 | 999.3 |
| 20260902033952 | 85 | 104 | 8.0 | 14.0 | 0.00 | 0.00 | 0.00 | 74 | 999.3 |
| 20260902033451 | 84 | 235 | 5.0 | 17.0 | 0.00 | 0.00 | 0.00 | 76 | 999.4 |
| 20260902033443 | 84 | 178 | 6.0 | 17.0 | 0.00 | 0.00 | 0.00 | 76 | 999.4 |
| 20260902032952 | 84 | 195 | 10.0 | 20.0 | 0.00 | 0.00 | 0.00 | 76 | 999.3 |
| 20260902032933 | 84 | 161 | 8.0 | 20.0 | 0.00 | 0.00 | 0.00 | 76 | 999.5 |
| 20260902032451 | 83 | 205 | 9.0 | 14.0 | 0.00 | 0.00 | 0.00 | 76 | 999.4 |
| 20260902032423 | 83 | 199 | 8.0 | 16.0 | 0.00 | 0.00 | 0.00 | 76 | 999.4 |
| 20260902031952 | 83 | 213 | 12.0 | 24.0 | 0.00 | 0.00 | 0.00 | 77 | 999.4 |
| 20260902031913 | 83 | 193 | 11.0 | 24.0 | 0.00 | 0.00 | 0.00 | 77 | 999.3 |
| 20260902031451 | 83 | 152 | 11.0 | 15.0 | 0.00 | 0.00 | 0.00 | 77 | 999.3 |
| 20260902031402 | 83 | 211 | 9.0 | 14.0 | 0.00 | 0.00 | 0.00 | 77 | 999.3 |
| 20260902030952 | 83 | 199 | 5.0 | 18.0 | 0.00 | 0.00 | 0.00 | 77 | 999.3 |
| 20260902030853 | 82 | 180 | 9.0 | 18.0 | 0.00 | 0.00 | 0.00 | 77 | 999.3 |
| 20260902030451 | 82 | 207 | 8.0 | 22.0 | 0.00 | 0.00 | 0.00 | 77 | 999.3 |
| 20260902030342 | 82 | 212 | 12.0 | 22.0 | 0.00 | 0.00 | 0.00 | 77 | 999.3 |
| 20260902025951 | 82 | 229 | 12.0 | 19.0 | 0.00 | 0.00 | 0.00 | 77 | 999.3 |
| 20260902025451 | 82 | 122 | 12.0 | 24.0 | 0.00 | 0.00 | 0.00 | 77 | 999.3 |
| 20260902025322 | 82 | 179 | 11.0 | 24.0 | 0.00 | 0.00 | 0.00 | 77 | 999.3 |
| 20260902024951 | 83 | 120 | 9.0 | 16.0 | 0.00 | 0.00 | 0.00 | 77 | 999.3 |
| 20260902024813 | 83 | 160 | 7.0 | 16.0 | 0.00 | 0.00 | 0.00 | 77 | 999.4 |
| 20260902024452 | 83 | 213 | 8.0 | 16.0 | 0.00 | 0.00 | 0.00 | 77 | 999.3 |
| 20260902024302 | 83 | 143 | 9.0 | 17.0 | 0.00 | 0.00 | 0.00 | 77 | 999.3 |
| 20260902023951 | 83 | 114 | 11.0 | 17.0 | 0.00 | 0.00 | 0.00 | 76 | 999.4 |
| 20260902023752 | 83 | 169 | 4.0 | 20.0 | 0.00 | 0.00 | 0.00 | 77 | 999.3 |
| 20260902023451 | 83 | 144 | 11.0 | 20.0 | 0.00 | 0.00 | 0.00 | 77 | 999.2 |
| 20260902023243 | 83 | 109 | 4.0 | 16.0 | 0.00 | 0.00 | 0.00 | 77 | 999.2 |
| 20260902022952 | 83 | 194 | 6.0 | 20.0 | 0.00 | 0.00 | 0.00 | 77 | 999.3 |
| 20260902022732 | 82 | 213 | 10.0 | 20.0 | 0.00 | 0.00 | 0.00 | 77 | 999.3 |
| 20260902022451 | 82 | 196 | 10.0 | 19.0 | 0.00 | 0.00 | 0.00 | 77 | 999.3 |
| 20260902022222 | 82 | 103 | 7.0 | 19.0 | 0.00 | 0.00 | 0.00 | 77 | 999.4 |
| 20260902021951 | 82 | 198 | 9.0 | 20.0 | 0.00 | 0.00 | 0.00 | 78 | 999.3 |
| 20260902021713 | 82 | 197 | 12.0 | 20.0 | 0.00 | 0.00 | 0.00 | 78 | 999.3 |
| 20260902021450 | 82 | 202 | 10.0 | 20.0 | 0.00 | 0.00 | 0.00 | 78 | 999.3 |
| 20260902021202 | 82 | 206 | 11.0 | 28.0 | 0.00 | 0.00 | 0.00 | 78 | 999.4 |
| 20260902020951 | 81 | 175 | 8.0 | 28.0 | 0.00 | 0.00 | 0.00 | 78 | 999.4 |
| 20260902020652 | 81 | 141 | 11.0 | 22.0 | 0.00 | 0.00 | 0.00 | 79 | 999.3 |
| 20260902020451 | 81 | 205 | 15.0 | 26.0 | 0.00 | 0.00 | 0.00 | 79 | 999.3 |
| 20260902020143 | 81 | 219 | 16.0 | 26.0 | 0.00 | 0.00 | 0.00 | 78 | 999.2 |
| 20260902015951 | 81 | 182 | 9.0 | 19.0 | 0.00 | 0.00 | 0.00 | 79 | 999.3 |
| 20260902015632 | 82 | 164 | 10.0 | 23.0 | 0.00 | 0.00 | 0.00 | 79 | 999.2 |
| 20260902015451 | 81 | 203 | 6.0 | 23.0 | 0.00 | 0.00 | 0.00 | 79 | 999.2 |
| 20260902015122 | 81 | 137 | 7.0 | 20.0 | 0.00 | 0.00 | 0.00 | 79 | 999.3 |
| 20260902014951 | 81 | 229 | 14.0 | 24.0 | 0.00 | 0.00 | 0.00 | 79 | 999.3 |
| 20260902014612 | 81 | 140 | 7.0 | 25.0 | 0.00 | 0.00 | 0.00 | 79 | 999.2 |
| 20260902014451 | 81 | 209 | 10.0 | 25.0 | 0.00 | 0.00 | 0.00 | 79 | 999.3 |
| 20260902014102 | 81 | 219 | 10.0 | 23.0 | 0.00 | 0.00 | 0.00 | 79 | 999.2 |
| 20260902013951 | 81 | 197 | 11.0 | 23.0 | 0.00 | 0.00 | 0.00 | 79 | 999.2 |
| 20260902013551 | 81 | 206 | 10.0 | 22.0 | 0.00 | 0.00 | 0.00 | 79 | 999.2 |
| 20260902013450 | 81 | 235 | 14.0 | 22.0 | 0.00 | 0.00 | 0.00 | 79 | 999.2 |
| 20260902013042 | 81 | 131 | 7.0 | 19.0 | 0.00 | 0.00 | 0.00 | 79 | 999.3 |
| 20260902012951 | 81 | 146 | 10.0 | 19.0 | 0.00 | 0.00 | 0.00 | 79 | 999.3 |
| 20260902012532 | 81 | 192 | 8.0 | 22.0 | 0.00 | 0.00 | 0.00 | 79 | 999.3 |
| 20260902012451 | 81 | 252 | 12.0 | 22.0 | 0.00 | 0.00 | 0.00 | 79 | 999.3 |
| 20260902012022 | 81 | 194 | 6.0 | 21.0 | 0.00 | 0.00 | 0.00 | 79 | 999.3 |
| 20260902011950 | 81 | 113 | 5.0 | 21.0 | 0.00 | 0.00 | 0.00 | 79 | 999.4 |
| 20260902011451 | 81 | 192 | 2.0 | 18.0 | 0.00 | 0.00 | 0.00 | 79 | 999.4 |
| 20260902011002 | 81 | 144 | 3.0 | 17.0 | 0.00 | 0.00 | 0.00 | 78 | 999.4 |
| 20260902010950 | 81 | 114 | 3.0 | 17.0 | 0.00 | 0.00 | 0.00 | 78 | 999.3 |
| 20260902010454 | 81 | 169 | 4.0 | 15.0 | 0.00 | 0.00 | 0.00 | 79 | 999.3 |
| 20260902010452 | 81 | 171 | 4.0 | 15.0 | 0.00 | 0.00 | 0.00 | 79 | 999.3 |
| 20260902005950 | 81 | 24 | 1.0 | 10.0 | 0.00 | 0.00 | 0.00 | 79 | 999.2 |
| 20260902005942 | 81 | 348 | 2.0 | 10.0 | 0.00 | 0.00 | 0.00 | 79 | 999.3 |
| 20260902005450 | 81 | 158 | 8.0 | 11.0 | 0.00 | 0.00 | 0.00 | 80 | 999.3 |
| 20260902005432 | 81 | 149 | 8.0 | 11.0 | 0.00 | 0.00 | 0.00 | 80 | 999.3 |
| 20260902004951 | 80 | 106 | 6.0 | 17.0 | 0.00 | 0.00 | 0.00 | 81 | 999.3 |
| 20260902004922 | 80 | 165 | 8.0 | 17.0 | 0.00 | 0.00 | 0.00 | 81 | 999.3 |
| 20260902004450 | 80 | 85 | 3.0 | 10.0 | 0.00 | 0.00 | 0.00 | 82 | 999.3 |
| 20260902004412 | 80 | 342 | 3.0 | 11.0 | 0.00 | 0.00 | 0.00 | 82 | 999.3 |
| 20260902003951 | 80 | 98 | 7.0 | 18.0 | 0.00 | 0.00 | 0.00 | 82 | 999.3 |
| 20260902003902 | 80 | 201 | 9.0 | 18.0 | 0.00 | 0.00 | 0.00 | 82 | 999.3 |
| 20260902003450 | 80 | 196 | 6.0 | 16.0 | 0.00 | 0.00 | 0.00 | 82 | 999.4 |
| 20260902003351 | 80 | 176 | 6.0 | 16.0 | 0.00 | 0.00 | 0.00 | 82 | 999.4 |
| 20260902002950 | 79 | 210 | 5.0 | 19.0 | 0.00 | 0.00 | 0.00 | 82 | 999.3 |
| 20260902002842 | 79 | 188 | 9.0 | 19.0 | 0.00 | 0.00 | 0.00 | 82 | 999.3 |
| 20260902002450 | 80 | 188 | 10.0 | 20.0 | 0.00 | 0.00 | 0.00 | 82 | 999.3 |
| 20260902002331 | 80 | 195 | 11.0 | 20.0 | 0.00 | 0.00 | 0.00 | 82 | 999.3 |
| 20260902001950 | 80 | 151 | 10.0 | 21.0 | 0.00 | 0.00 | 0.00 | 81 | 999.3 |
| 20260902001821 | 80 | 124 | 10.0 | 21.0 | 0.00 | 0.00 | 0.00 | 82 | 999.2 |
| 20260902001450 | 80 | 179 | 10.0 | 17.0 | 0.00 | 0.00 | 0.00 | 81 | 999.2 |
| 20260902001312 | 80 | 157 | 5.0 | 12.0 | 0.00 | 0.00 | 0.00 | 81 | 999.2 |
| 20260902000950 | 80 | 204 | 6.0 | 13.0 | 0.00 | 0.00 | 0.00 | 81 | 999.1 |
| 20260902000801 | 80 | 134 | 8.0 | 13.0 | 0.00 | 0.00 | 0.00 | 81 | 999.1 |
| 20260902000451 | 80 | 84 | 1.0 | 11.0 | 0.00 | 0.00 | 0.00 | 81 | 999.1 |
| 20260902000252 | 80 | 210 | 6.0 | 11.0 | 0.00 | 0.00 | 0.00 | 81 | 999.1 |
| 20260901235951 | 80 | 59 | 3.0 | 10.0 | 0.00 | 0.00 | 0.00 | 81 | 999.1 |
| 20260901235741 | 80 | 62 | 2.0 | 14.0 | 0.00 | 0.00 | 0.00 | 81 | 999.0 |
| 20260901235450 | 80 | 225 | 8.0 | 14.0 | 0.00 | 0.00 | 0.00 | 81 | 999.0 |
| 20260901234950 | 80 | 269 | 3.0 | 10.0 | 0.00 | 0.00 | 0.00 | 81 | 998.9 |
| 20260901234721 | 80 | 168 | 4.0 | 10.0 | 0.00 | 0.00 | 0.00 | 81 | 998.8 |
| 20260901234450 | 80 | 116 | 6.0 | 15.0 | 0.00 | 0.00 | 0.00 | 81 | 998.8 |
| 20260901234211 | 80 | 115 | 3.0 | 15.0 | 0.00 | 0.00 | 0.00 | 81 | 998.8 |
| 20260901233950 | 80 | 101 | 3.0 | 9.0 | 0.00 | 0.00 | 0.00 | 82 | 998.7 |
| 20260901233701 | 80 | 240 | 2.0 | 10.0 | 0.00 | 0.00 | 0.00 | 82 | 998.7 |
| 20260901233450 | 80 | 104 | 4.0 | 13.0 | 0.00 | 0.00 | 0.00 | 82 | 998.7 |
| 20260901233152 | 80 | 129 | 3.0 | 14.0 | 0.00 | 0.00 | 0.00 | 81 | 998.6 |
| 20260901232950 | 80 | 214 | 7.0 | 14.0 | 0.00 | 0.00 | 0.00 | 81 | 998.6 |
| 20260901232641 | 80 | 148 | 7.0 | 12.0 | 0.00 | 0.00 | 0.00 | 81 | 998.5 |
| 20260901232450 | 80 | 182 | 4.0 | 9.0 | 0.00 | 0.00 | 0.00 | 82 | 998.5 |
| 20260901232131 | 80 | 111 | 6.0 | 16.0 | 0.00 | 0.00 | 0.00 | 81 | 998.5 |
| 20260901231950 | 80 | 121 | 3.0 | 16.0 | 0.00 | 0.00 | 0.00 | 81 | 998.5 |
| 20260901231621 | 80 | 185 | 6.0 | 14.0 | 0.00 | 0.00 | 0.00 | 81 | 998.5 |
| 20260901231449 | 80 | 96 | 5.0 | 14.0 | 0.00 | 0.00 | 0.00 | 81 | 998.4 |
| 20260901231111 | 80 | 253 | 1.0 | 17.0 | 0.00 | 0.00 | 0.00 | 82 | 998.4 |
| 20260901230950 | 80 | 52 | 2.0 | 17.0 | 0.00 | 0.00 | 0.00 | 81 | 998.4 |
| 20260901230601 | 80 | 171 | 6.0 | 11.0 | 0.00 | 0.00 | 0.00 | 81 | 998.4 |
| 20260901230449 | 80 | 266 | 5.0 | 11.0 | 0.00 | 0.00 | 0.00 | 81 | 998.4 |
| 20260901230051 | 80 | 173 | 5.0 | 16.0 | 0.00 | 0.00 | 0.00 | 81 | 998.4 |
| 20260901225949 | 80 | 216 | 3.0 | 16.0 | 0.00 | 0.00 | 0.00 | 82 | 998.3 |
| 20260901225541 | 79 | 127 | 9.0 | 16.0 | 0.00 | 0.00 | 0.00 | 82 | 998.2 |
| 20260901225450 | 79 | 184 | 9.0 | 16.0 | 0.00 | 0.00 | 0.00 | 82 | 998.2 |
| 20260901225030 | 79 | 165 | 3.0 | 7.0 | 0.00 | 0.00 | 0.00 | 82 | 998.1 |
| 20260901224949 | 79 | 80 | 1.0 | 8.0 | 0.00 | 0.00 | 0.00 | 82 | 998.1 |
| 20260901224521 | 79 | 213 | 9.0 | 13.0 | 0.00 | 0.00 | 0.00 | 82 | 998.0 |
| 20260901224449 | 79 | 209 | 10.0 | 13.0 | 0.00 | 0.00 | 0.00 | 82 | 998.0 |
| 20260901223950 | 79 | 222 | 8.0 | 12.0 | 0.00 | 0.00 | 0.00 | 83 | 998.1 |
| 20260901223500 | 79 | 114 | 1.0 | 16.0 | 0.00 | 0.00 | 0.00 | 83 | 998.1 |
| 20260901223449 | 79 | 104 | 2.0 | 16.0 | 0.00 | 0.00 | 0.00 | 83 | 998.1 |
| 20260901222949 | 79 | 155 | 4.0 | 11.0 | 0.00 | 0.00 | 0.00 | 83 | 998.1 |
| 20260901222450 | 79 | 223 | 8.0 | 14.0 | 0.00 | 0.00 | 0.00 | 83 | 998.0 |
| 20260901222441 | 79 | 239 | 6.0 | 14.0 | 0.00 | 0.00 | 0.00 | 83 | 998.0 |
| 20260901221949 | 79 | 95 | 3.0 | 11.0 | 0.00 | 0.00 | 0.00 | 83 | 998.0 |
| 20260901221930 | 79 | 168 | 3.0 | 11.0 | 0.00 | 0.00 | 0.00 | 83 | 998.0 |
| 20260901221449 | 79 | 155 | 9.0 | 14.0 | 0.00 | 0.00 | 0.00 | 83 | 998.0 |
| 20260901221420 | 79 | 176 | 7.0 | 14.0 | 0.00 | 0.00 | 0.00 | 83 | 997.9 |
| 20260901220949 | 79 | 204 | 2.0 | 9.0 | 0.00 | 0.00 | 0.00 | 83 | 998.0 |
| 20260901220911 | 79 | 360 | 4.0 | 12.0 | 0.00 | 0.00 | 0.00 | 83 | 998.0 |
| 20260901220449 | 79 | 121 | 9.0 | 14.0 | 0.00 | 0.00 | 0.00 | 83 | 997.9 |
| 20260901220400 | 79 | 161 | 6.0 | 14.0 | 0.00 | 0.00 | 0.00 | 83 | 997.9 |
| 20260901215949 | 79 | 156 | 7.0 | 20.0 | 0.00 | 0.00 | 0.00 | 82 | 997.8 |
| 20260901215851 | 79 | 213 | 13.0 | 20.0 | 0.00 | 0.00 | 0.00 | 82 | 997.8 |
| 20260901215450 | 79 | 360 | 3.0 | 18.0 | 0.00 | 0.00 | 0.00 | 82 | 997.8 |
| 20260901215340 | 79 | 274 | 11.0 | 18.0 | 0.00 | 0.00 | 0.00 | 82 | 997.7 |
| 20260901214949 | 79 | 90 | 3.0 | 15.0 | 0.00 | 0.00 | 0.00 | 83 | 997.8 |
| 20260901214830 | 79 | 43 | 3.0 | 15.0 | 0.00 | 0.00 | 0.00 | 83 | 997.7 |
| 20260901214449 | 79 | 123 | 7.0 | 14.0 | 0.00 | 0.00 | 0.00 | 83 | 997.7 |
| 20260901214321 | 79 | 174 | 2.0 | 7.0 | 0.00 | 0.00 | 0.00 | 83 | 997.7 |
| 20260901213948 | 79 | 35 | 3.0 | 7.0 | 0.00 | 0.00 | 0.00 | 83 | 997.6 |
| 20260901213810 | 79 | 122 | 4.0 | 10.0 | 0.00 | 0.00 | 0.00 | 83 | 997.7 |
| 20260901213449 | 79 | 58 | 5.0 | 13.0 | 0.00 | 0.00 | 0.00 | 84 | 997.7 |
| 20260901213300 | 79 | 98 | 7.0 | 13.0 | 0.00 | 0.00 | 0.00 | 84 | 997.7 |
| 20260901212949 | 79 | 134 | 6.0 | 12.0 | 0.00 | 0.00 | 0.00 | 84 | 997.7 |
| 20260901212751 | 79 | 179 | 3.0 | 7.0 | 0.00 | 0.00 | 0.00 | 84 | 997.7 |
| 20260901212449 | 79 | 159 | 3.0 | 21.0 | 0.00 | 0.00 | 0.00 | 85 | 997.8 |
| 20260901212240 | 79 | 357 | 2.0 | 21.0 | 0.00 | 0.00 | 0.00 | 85 | 997.7 |
| 20260901211949 | 79 | 180 | 4.0 | 12.0 | 0.00 | 0.00 | 0.00 | 85 | 997.8 |
| 20260901211730 | 79 | 255 | 2.0 | 18.0 | 0.00 | 0.00 | 0.00 | 85 | 997.8 |
| 20260901211449 | 78 | 166 | 2.0 | 18.0 | 0.00 | 0.00 | 0.00 | 85 | 997.8 |
| 20260901211220 | 78 | 263 | 3.0 | 11.0 | 0.00 | 0.00 | 0.00 | 85 | 997.8 |
| 20260901210948 | 78 | 42 | 2.0 | 15.0 | 0.00 | 0.00 | 0.00 | 85 | 997.8 |
| 20260901210710 | 78 | 209 | 11.0 | 15.0 | 0.00 | 0.00 | 0.00 | 85 | 997.7 |
| 20260901210450 | 79 | 301 | 8.0 | 12.0 | 0.00 | 0.00 | 0.00 | 85 | 997.8 |
| 20260901210200 | 79 | 137 | 3.0 | 11.0 | 0.00 | 0.00 | 0.00 | 85 | 997.8 |
| 20260901205948 | 79 | 182 | 5.0 | 11.0 | 0.00 | 0.00 | 0.00 | 84 | 997.8 |
| 20260901205650 | 79 | 247 | 6.0 | 20.0 | 0.00 | 0.00 | 0.00 | 84 | 997.8 |
| 20260901205448 | 79 | 185 | 6.0 | 20.0 | 0.00 | 0.00 | 0.00 | 84 | 997.7 |
| 20260901205140 | 79 | 113 | 4.0 | 14.0 | 0.00 | 0.00 | 0.00 | 84 | 997.7 |
| 20260901204949 | 79 | 84 | 7.0 | 14.0 | 0.00 | 0.00 | 0.00 | 84 | 997.8 |
| 20260901204449 | 79 | 173 | 2.0 | 13.0 | 0.00 | 0.00 | 0.00 | 83 | 997.8 |
| 20260901204119 | 79 | 154 | 2.0 | 9.0 | 0.00 | 0.00 | 0.00 | 83 | 997.8 |
| 20260901203948 | 79 | 87 | 4.0 | 18.0 | 0.00 | 0.00 | 0.00 | 83 | 997.7 |
| 20260901203610 | 79 | 104 | 8.0 | 18.0 | 0.00 | 0.00 | 0.00 | 83 | 997.7 |
| 20260901203448 | 79 | 129 | 7.0 | 14.0 | 0.00 | 0.00 | 0.00 | 83 | 997.7 |
| 20260901203100 | 79 | 117 | 3.0 | 11.0 | 0.00 | 0.00 | 0.00 | 83 | 997.7 |
| 20260901202949 | 79 | 111 | 5.0 | 9.0 | 0.00 | 0.00 | 0.00 | 83 | 997.7 |
| 20260901202549 | 79 | 43 | 2.0 | 9.0 | 0.00 | 0.00 | 0.00 | 83 | 997.7 |
| 20260901202448 | 79 | 77 | 2.0 | 9.0 | 0.00 | 0.00 | 0.00 | 83 | 997.7 |
| 20260901202040 | 79 | 168 | 3.0 | 6.0 | 0.00 | 0.00 | 0.00 | 83 | 997.8 |
| 20260901201948 | 79 | 131 | 3.0 | 6.0 | 0.00 | 0.00 | 0.00 | 83 | 997.8 |
| 20260901201530 | 79 | 123 | 2.0 | 7.0 | 0.00 | 0.00 | 0.00 | 83 | 997.8 |
| 20260901201448 | 79 | 13 | 3.0 | 7.0 | 0.00 | 0.00 | 0.00 | 84 | 997.8 |
| 20260901201019 | 79 | 348 | 2.0 | 7.0 | 0.00 | 0.00 | 0.00 | 84 | 997.8 |
| 20260901200948 | 79 | 359 | 3.0 | 7.0 | 0.00 | 0.00 | 0.00 | 84 | 997.7 |
| 20260901200509 | 79 | 24 | 4.0 | 8.0 | 0.00 | 0.00 | 0.00 | 84 | 997.7 |
| 20260901200448 | 79 | 108 | 4.0 | 8.0 | 0.00 | 0.00 | 0.00 | 84 | 997.7 |
| 20260901200000 | 79 | 31 | 2.0 | 10.0 | 0.00 | 0.00 | 0.00 | 84 | 997.7 |
| 20260901195948 | 79 | 25 | 2.0 | 10.0 | 0.00 | 0.00 | 0.00 | 84 | 997.6 |
| 20260901195450 | 79 | 206 | 2.0 | 7.0 | 0.00 | 0.00 | 0.00 | 84 | 997.7 |
| 20260901195448 | 79 | 207 | 2.0 | 7.0 | 0.00 | 0.00 | 0.00 | 84 | 997.7 |
| 20260901194948 | 79 | 44 | 4.0 | 10.0 | 0.00 | 0.00 | 0.00 | 84 | 997.7 |
| 20260901194939 | 79 | 59 | 4.0 | 10.0 | 0.00 | 0.00 | 0.00 | 84 | 997.6 |
| 20260901194448 | 79 | 127 | 2.0 | 6.0 | 0.00 | 0.00 | 0.00 | 84 | 997.7 |
| 20260901194430 | 79 | 117 | 1.0 | 5.0 | 0.00 | 0.00 | 0.00 | 84 | 997.7 |
| 20260901193948 | 79 | 47 | 3.0 | 13.0 | 0.00 | 0.00 | 0.00 | 85 | 997.6 |
| 20260901193920 | 79 | 67 | 4.0 | 16.0 | 0.00 | 0.00 | 0.00 | 85 | 997.6 |
| 20260901193448 | 79 | 241 | 10.0 | 16.0 | 0.00 | 0.00 | 0.00 | 85 | 997.6 |
| 20260901193409 | 79 | 136 | 7.0 | 15.0 | 0.00 | 0.00 | 0.00 | 85 | 997.7 |
| 20260901192947 | 79 | 37 | 9.0 | 22.0 | 0.00 | 0.00 | 0.00 | 85 | 997.8 |
| 20260901192900 | 79 | 184 | 7.0 | 17.0 | 0.00 | 0.00 | 0.00 | 85 | 997.7 |
| 20260901192448 | 79 | 195 | 5.0 | 9.0 | 0.00 | 0.00 | 0.00 | 85 | 997.7 |
| 20260901192349 | 79 | 169 | 5.0 | 9.0 | 0.00 | 0.00 | 0.00 | 85 | 997.7 |
| 20260901191948 | 79 | 277 | 4.0 | 10.0 | 0.00 | 0.00 | 0.00 | 85 | 997.7 |
| 20260901191840 | 79 | 37 | 3.0 | 10.0 | 0.00 | 0.00 | 0.00 | 85 | 997.6 |
| 20260901191447 | 79 | 54 | 1.0 | 8.0 | 0.00 | 0.00 | 0.00 | 85 | 997.7 |
| 20260901191329 | 79 | 101 | 4.0 | 8.0 | 0.00 | 0.00 | 0.00 | 85 | 997.7 |
| 20260901190948 | 79 | 137 | 1.0 | 5.0 | 0.00 | 0.00 | 0.00 | 86 | 997.7 |
| 20260901190819 | 79 | 48 | 1.0 | 11.0 | 0.00 | 0.00 | 0.00 | 86 | 997.7 |
| 20260901190448 | 79 | 201 | 7.0 | 15.0 | 0.00 | 0.00 | 0.00 | 86 | 997.8 |
| 20260901190308 | 79 | 209 | 10.0 | 15.0 | 0.00 | 0.00 | 0.00 | 86 | 997.8 |
| 20260901185947 | 79 | 307 | 1.0 | 11.0 | 0.00 | 0.00 | 0.00 | 86 | 997.8 |
| 20260901185759 | 79 | 142 | 7.0 | 13.0 | 0.00 | 0.00 | 0.00 | 86 | 997.7 |
| 20260901185448 | 79 | 224 | 5.0 | 16.0 | 0.00 | 0.00 | 0.00 | 86 | 997.7 |
| 20260901185249 | 79 | 133 | 7.0 | 16.0 | 0.00 | 0.00 | 0.00 | 86 | 997.6 |
| 20260901184948 | 79 | 128 | 9.0 | 16.0 | 0.00 | 0.00 | 0.00 | 86 | 997.7 |
| 20260901184739 | 79 | 233 | 7.0 | 13.0 | 0.00 | 0.00 | 0.00 | 86 | 997.5 |
| 20260901184447 | 79 | 68 | 3.0 | 14.0 | 0.00 | 0.00 | 0.00 | 86 | 997.6 |
| 20260901184229 | 79 | 213 | 7.0 | 16.0 | 0.00 | 0.00 | 0.00 | 86 | 997.6 |
| 20260901183948 | 79 | 145 | 7.0 | 16.0 | 0.00 | 0.00 | 0.00 | 86 | 997.6 |
| 20260901183719 | 79 | 161 | 3.0 | 9.0 | 0.00 | 0.00 | 0.00 | 86 | 997.6 |
| 20260901182947 | 79 | 42 | 4.0 | 19.0 | 0.00 | 0.00 | 0.00 | 86 | 997.6 |
| 20260901182659 | 79 | 237 | 10.0 | 19.0 | 0.00 | 0.00 | 0.00 | 86 | 997.6 |
| 20260901182448 | 79 | 158 | 1.0 | 15.0 | 0.00 | 0.00 | 0.00 | 86 | 997.7 |
| 20260901182149 | 79 | 227 | 8.0 | 15.0 | 0.00 | 0.00 | 0.00 | 86 | 997.7 |
| 20260901181947 | 79 | 303 | 7.0 | 15.0 | 0.00 | 0.00 | 0.00 | 86 | 997.8 |
| 20260901181638 | 80 | 234 | 9.0 | 17.0 | 0.00 | 0.00 | 0.00 | 86 | 997.7 |
| 20260901181447 | 80 | 222 | 5.0 | 17.0 | 0.00 | 0.00 | 0.00 | 86 | 997.7 |
| 20260901181129 | 80 | 268 | 6.0 | 12.0 | 0.00 | 0.00 | 0.00 | 85 | 997.7 |
| 20260901180948 | 80 | 233 | 6.0 | 12.0 | 0.00 | 0.00 | 0.00 | 85 | 997.8 |
| 20260901180618 | 80 | 228 | 6.0 | 15.0 | 0.00 | 0.00 | 0.00 | 85 | 997.7 |
| 20260901180447 | 80 | 199 | 8.0 | 15.0 | 0.00 | 0.00 | 0.00 | 85 | 997.7 |
| 20260901180109 | 80 | 182 | 3.0 | 19.0 | 0.00 | 0.00 | 0.00 | 85 | 997.7 |
| 20260901175947 | 80 | 233 | 9.0 | 19.0 | 0.00 | 0.00 | 0.00 | 85 | 997.8 |
| 20260901175558 | 80 | 228 | 6.0 | 10.0 | 0.00 | 0.00 | 0.00 | 85 | 997.8 |
| 20260901175447 | 80 | 293 | 4.0 | 9.0 | 0.00 | 0.00 | 0.00 | 85 | 997.8 |
| 20260901175048 | 80 | 26 | 1.0 | 6.0 | 0.00 | 0.00 | 0.00 | 85 | 997.9 |
| 20260901174947 | 80 | 96 | 4.0 | 6.0 | 0.00 | 0.00 | 0.00 | 85 | 997.9 |
| 20260901174539 | 80 | 182 | 1.0 | 4.0 | 0.00 | 0.00 | 0.00 | 85 | 997.9 |
| 20260901174448 | 80 | 58 | 2.0 | 4.0 | 0.00 | 0.00 | 0.00 | 85 | 997.9 |
| 20260901173947 | 80 | 66 | 2.0 | 5.0 | 0.00 | 0.00 | 0.00 | 85 | 997.9 |
| 20260901173519 | 80 | 169 | 3.0 | 5.0 | 0.00 | 0.00 | 0.00 | 85 | 998.0 |
| 20260901173447 | 80 | 155 | 1.0 | 9.0 | 0.00 | 0.00 | 0.00 | 85 | 997.9 |
| 20260901172947 | 80 | 134 | 6.0 | 9.0 | 0.00 | 0.00 | 0.00 | 85 | 997.9 |
| 20260901172458 | 80 | 157 | 1.0 | 7.0 | 0.00 | 0.00 | 0.00 | 85 | 998.0 |
| 20260901172447 | 80 | 147 | 1.0 | 7.0 | 0.00 | 0.00 | 0.00 | 85 | 998.0 |
| 20260901171950 | 80 | 56 | 2.0 | 6.0 | 0.00 | 0.00 | 0.00 | 85 | 997.9 |
| 20260901171447 | 80 | 144 | 4.0 | 8.0 | 0.00 | 0.00 | 0.00 | 85 | 998.0 |
| 20260901171438 | 80 | 116 | 4.0 | 8.0 | 0.00 | 0.00 | 0.00 | 85 | 997.9 |
| 20260901170947 | 80 | 91 | 1.0 | 5.0 | 0.00 | 0.00 | 0.00 | 85 | 998.0 |
| 20260901170928 | 80 | 76 | 2.0 | 5.0 | 0.00 | 0.00 | 0.00 | 85 | 998.0 |
| 20260901170446 | 80 | 248 | 4.0 | 9.0 | 0.00 | 0.00 | 0.00 | 86 | 998.1 |
| 20260901170418 | 80 | 278 | 3.0 | 9.0 | 0.00 | 0.00 | 0.00 | 86 | 998.1 |
| 20260901165947 | 80 | 254 | 1.0 | 4.0 | 0.00 | 0.00 | 0.00 | 86 | 998.1 |
| 20260901165908 | 80 | 98 | 1.0 | 5.0 | 0.00 | 0.00 | 0.00 | 86 | 998.1 |
| 20260901165446 | 80 | 29 | 3.0 | 6.0 | 0.00 | 0.00 | 0.00 | 86 | 998.3 |
| 20260901165358 | 80 | 305 | 3.0 | 6.0 | 0.00 | 0.00 | 0.00 | 86 | 998.3 |
| 20260901164947 | 80 | 37 | 1.0 | 5.0 | 0.00 | 0.00 | 0.00 | 86 | 998.3 |
| 20260901164848 | 80 | 50 | 3.0 | 7.0 | 0.00 | 0.00 | 0.00 | 86 | 998.3 |
| 20260901164446 | 80 | 44 | 5.0 | 7.0 | 0.00 | 0.00 | 0.00 | 86 | 998.4 |
| 20260901164337 | 80 | 37 | 4.0 | 7.0 | 0.00 | 0.00 | 0.00 | 86 | 998.4 |
| 20260901163946 | 80 | 40 | 0.0 | 4.0 | 0.00 | 0.00 | 0.00 | 86 | 998.5 |
| 20260901163828 | 80 | 29 | 2.0 | 4.0 | 0.00 | 0.00 | 0.00 | 86 | 998.5 |
| 20260901163447 | 80 | 202 | 1.0 | 8.0 | 0.00 | 0.00 | 0.00 | 86 | 998.5 |
| 20260901163318 | 80 | 162 | 5.0 | 8.0 | 0.00 | 0.00 | 0.00 | 86 | 998.6 |
| 20260901162946 | 80 | 211 | 4.0 | 7.0 | 0.00 | 0.00 | 0.00 | 86 | 998.5 |
| 20260901162808 | 80 | 217 | 4.0 | 7.0 | 0.00 | 0.00 | 0.00 | 86 | 998.6 |
| 20260901162446 | 80 | 198 | 0.0 | 6.0 | 0.00 | 0.00 | 0.00 | 86 | 998.6 |
| 20260901161946 | 80 | 143 | 5.0 | 8.0 | 0.00 | 0.00 | 0.00 | 86 | 998.5 |
| 20260901161747 | 80 | 95 | 1.0 | 4.0 | 0.00 | 0.00 | 0.00 | 86 | 998.5 |
| 20260901161446 | 80 | 325 | 1.0 | 4.0 | 0.00 | 0.00 | 0.00 | 87 | 998.6 |
| 20260901161238 | 80 | 18 | 2.0 | 4.0 | 0.00 | 0.00 | 0.00 | 87 | 998.6 |
| 20260901160946 | 80 | 308 | 1.0 | 5.0 | 0.00 | 0.00 | 0.00 | 87 | 998.6 |
| 20260901160728 | 80 | 260 | 3.0 | 10.0 | 0.00 | 0.00 | 0.00 | 87 | 998.7 |
| 20260901160446 | 80 | 250 | 5.0 | 10.0 | 0.00 | 0.00 | 0.00 | 87 | 998.7 |
| 20260901160218 | 80 | 274 | 2.0 | 5.0 | 0.00 | 0.00 | 0.00 | 87 | 998.6 |
| 20260901155946 | 80 | 220 | 1.0 | 3.0 | 0.00 | 0.00 | 0.00 | 87 | 998.7 |
| 20260901155447 | 80 | 9 | 1.0 | 6.0 | 0.00 | 0.00 | 0.00 | 87 | 998.8 |
| 20260901155157 | 80 | 232 | 4.0 | 6.0 | 0.00 | 0.00 | 0.00 | 87 | 998.8 |
| 20260901154946 | 80 | 226 | 3.0 | 5.0 | 0.00 | 0.00 | 0.00 | 87 | 998.8 |
| 20260901154648 | 80 | 207 | 2.0 | 5.0 | 0.00 | 0.00 | 0.00 | 87 | 998.8 |
| 20260901154446 | 80 | 341 | 1.0 | 4.0 | 0.00 | 0.00 | 0.00 | 87 | 998.8 |
| 20260901154137 | 80 | 174 | 1.0 | 6.0 | 0.00 | 0.00 | 0.00 | 87 | 998.8 |
| 20260901153946 | 80 | 137 | 3.0 | 6.0 | 0.00 | 0.00 | 0.00 | 87 | 998.8 |
| 20260901153627 | 80 | 126 | 3.0 | 6.0 | 0.00 | 0.00 | 0.00 | 87 | 998.7 |
| 20260901153446 | 80 | 237 | 3.0 | 4.0 | 0.00 | 0.00 | 0.00 | 87 | 998.6 |
| 20260901153118 | 80 | 256 | 1.0 | 7.0 | 0.00 | 0.00 | 0.00 | 87 | 998.7 |
| 20260901152946 | 80 | 51 | 1.0 | 7.0 | 0.00 | 0.00 | 0.00 | 87 | 998.7 |
| 20260901152607 | 80 | 201 | 3.0 | 5.0 | 0.00 | 0.00 | 0.00 | 87 | 998.6 |
| 20260901152446 | 80 | 240 | 3.0 | 4.0 | 0.00 | 0.00 | 0.00 | 87 | 998.6 |
| 20260901152057 | 80 | 144 | 0.0 | 5.0 | 0.00 | 0.00 | 0.00 | 87 | 998.6 |
| 20260901151946 | 80 | 117 | 2.0 | 5.0 | 0.00 | 0.00 | 0.00 | 87 | 998.6 |
| 20260901151547 | 80 | 196 | 3.0 | 5.0 | 0.00 | 0.00 | 0.00 | 87 | 998.5 |
| 20260901151445 | 80 | 211 | 3.0 | 8.0 | 0.00 | 0.00 | 0.00 | 87 | 998.5 |
| 20260901151037 | 80 | 243 | 5.0 | 9.0 | 0.00 | 0.00 | 0.00 | 87 | 998.6 |
| 20260901150946 | 80 | 246 | 7.0 | 9.0 | 0.00 | 0.00 | 0.00 | 87 | 998.6 |
| 20260901150528 | 80 | 253 | 1.0 | 4.0 | 0.00 | 0.00 | 0.00 | 87 | 998.6 |
| 20260901150446 | 80 | 266 | 0.0 | 3.0 | 0.00 | 0.00 | 0.00 | 87 | 998.6 |
| 20260901150017 | 80 | 241 | 1.0 | 10.0 | 0.00 | 0.00 | 0.00 | 87 | 998.5 |
| 20260901145945 | 80 | 232 | 1.0 | 10.0 | 0.00 | 0.00 | 0.00 | 87 | 998.6 |
| 20260901145507 | 80 | 27 | 1.0 | 7.0 | 0.00 | 0.00 | 0.00 | 87 | 998.6 |
| 20260901145446 | 80 | 15 | 1.0 | 7.0 | 0.00 | 0.00 | 0.00 | 87 | 998.6 |
| 20260901144956 | 80 | 289 | 1.0 | 9.0 | 0.00 | 0.00 | 0.00 | 87 | 998.5 |
| 20260901144946 | 80 | 302 | 1.0 | 9.0 | 0.00 | 0.00 | 0.00 | 87 | 998.5 |
| 20260901144448 | 80 | 216 | 3.0 | 7.0 | 0.00 | 0.00 | 0.00 | 87 | 998.5 |
| 20260901144445 | 80 | 219 | 3.0 | 7.0 | 0.00 | 0.00 | 0.00 | 87 | 998.5 |
| 20260901143946 | 80 | 354 | 0.0 | 6.0 | 0.00 | 0.00 | 0.00 | 88 | 998.6 |
| 20260901143937 | 80 | 7 | 0.0 | 6.0 | 0.00 | 0.00 | 0.00 | 88 | 998.6 |
| 20260901143445 | 79 | 76 | 2.0 | 7.0 | 0.00 | 0.00 | 0.00 | 88 | 998.6 |
| 20260901142945 | 79 | 267 | 3.0 | 5.0 | 0.00 | 0.00 | 0.00 | 88 | 998.5 |
| 20260901142917 | 79 | 244 | 2.0 | 5.0 | 0.00 | 0.00 | 0.00 | 88 | 998.5 |
| 20260901142446 | 80 | 234 | 3.0 | 7.0 | 0.00 | 0.00 | 0.00 | 88 | 998.5 |
| 20260901142407 | 80 | 262 | 2.0 | 7.0 | 0.00 | 0.00 | 0.00 | 88 | 998.5 |
| 20260901141945 | 79 | 245 | 3.0 | 6.0 | 0.00 | 0.00 | 0.00 | 87 | 998.5 |
| 20260901141857 | 79 | 175 | 0.0 | 3.0 | 0.00 | 0.00 | 0.00 | 88 | 998.5 |
| 20260901141446 | 79 | 249 | 3.0 | 5.0 | 0.00 | 0.00 | 0.00 | 88 | 998.4 |
| 20260901141347 | 79 | 228 | 1.0 | 5.0 | 0.00 | 0.00 | 0.00 | 88 | 998.4 |
| 20260901140945 | 80 | 213 | 2.0 | 9.0 | 0.00 | 0.00 | 0.00 | 87 | 998.4 |
| 20260901140836 | 80 | 227 | 5.0 | 9.0 | 0.00 | 0.00 | 0.00 | 87 | 998.4 |
| 20260901140445 | 80 | 220 | 2.0 | 8.0 | 0.00 | 0.00 | 0.00 | 87 | 998.4 |
| 20260901140327 | 80 | 252 | 4.0 | 8.0 | 0.00 | 0.00 | 0.00 | 87 | 998.4 |
| 20260901135946 | 80 | 264 | 4.0 | 8.0 | 0.00 | 0.00 | 0.00 | 87 | 998.3 |
| 20260901135817 | 79 | 313 | 2.0 | 5.0 | 0.00 | 0.00 | 0.00 | 87 | 998.3 |
| 20260901135445 | 79 | 240 | 1.0 | 9.0 | 0.00 | 0.00 | 0.00 | 87 | 998.3 |
| 20260901135307 | 79 | 359 | 2.0 | 9.0 | 0.00 | 0.00 | 0.00 | 87 | 998.3 |